Total_Precipitation_Accumulation
1.07 1.27 1.45 1.59 1.77 1.90 2.00 2.04 2.06 2.11 2.21 2.27 2.21 2.26 2.36 2.40 2.36 2.36 2.35 2.25 2.12 1.99 1.90 1.84 1.78 1.72 1.74 1.70 1.73 1.81 1.86 1.94 1.93 1.50 1.28 1.26 1.36 1.37 1.40 1.32 1.28 1.26 1.20
0.96 1.08 1.28 1.37 1.51 1.68 1.80 1.84 1.85 1.88 1.94 2.00 2.04 2.08 2.11 2.16 2.21 2.22 2.21 2.18 2.13 2.02 1.92 1.89 1.81 1.79 1.88 1.88 1.87 1.85 1.83 1.79 1.81 1.64 1.37 1.27 1.26 1.21 1.19 1.21 1.22 1.21 1.12
0.92 0.97 1.11 1.25 1.33 1.42 1.54 1.64 1.70 1.74 1.81 1.85 1.87 1.96 2.00 1.98 2.03 2.08 2.08 2.08 2.08 2.04 1.99 1.96 1.90 1.88 1.94 1.93 1.89 1.85 1.78 1.73 1.71 1.67 1.50 1.35 1.33 1.27 1.25 1.23 1.20 1.20 1.12
0.85 0.93 0.96 1.13 1.24 1.30 1.35 1.43 1.51 1.53 1.61 1.64 1.69 1.72 1.80 1.85 1.90 1.99 2.06 2.06 2.06 2.04 2.01 1.97 1.91 1.88 1.85 1.80 1.76 1.70 1.69 1.72 1.75 1.76 1.64 1.50 1.43 1.40 1.41 1.44 1.40 1.28 1.21
0.77 0.87 0.92 1.00 1.09 1.20 1.30 1.37 1.46 1.48 1.51 1.55 1.58 1.61 1.63 1.69 1.78 1.88 2.00 2.08 2.09 2.08 2.06 1.99 1.86 1.81 1.74 1.71 1.69 1.62 1.63 1.75 1.83 1.86 1.76 1.61 1.49 1.48 1.51 1.43 1.44 1.39 1.32
0.76 0.80 0.88 0.97 1.01 1.07 1.17 1.28 1.37 1.47 1.51 1.53 1.61 1.65 1.67 1.73 1.95 2.05 2.03 2.05 2.06 2.02 1.94 1.81 1.73 1.71 1.66 1.70 1.72 1.69 1.75 1.89 2.00 1.95 1.78 1.56 1.34 1.27 1.35 1.50 1.62 1.68 1.59
0.82 0.81 0.85 0.93 1.02 1.08 1.11 1.20 1.37 1.47 1.62 1.69 1.70 1.78 1.80 1.83 1.91 1.81 1.86 1.87 1.91 1.91 1.82 1.69 1.60 1.50 1.49 1.37 1.50 1.61 1.65 1.75 1.80 1.73 1.64 1.40 1.27 1.23 1.47 1.72 1.72 1.63 1.40
0.87 0.89 0.91 0.93 1.05 1.16 1.19 1.24 1.35 1.46 1.60 1.75 1.79 1.81 1.80 1.80 1.80 1.67 1.67 1.55 1.55 1.59 1.61 1.59 1.53 1.48 1.41 1.39 1.43 1.50 1.41 1.36 1.36 1.29 1.28 1.29 1.28 1.30 1.51 1.78 1.80 1.77 1.53
0.89 0.93 0.97 1.00 1.11 1.22 1.24 1.27 1.33 1.40 1.48 1.56 1.64 1.65 1.60 1.58 1.59 1.50 1.50 1.40 1.39 1.36 1.34 1.39 1.45 1.39 1.49 1.60 1.55 1.50 1.33 1.18 1.21 1.29 1.36 1.36 1.44 1.45 1.54 1.90 2.08 2.13 1.90
1.00 1.03 1.07 1.15 1.27 1.33 1.32 1.30 1.29 1.30 1.31 1.29 1.31 1.30 1.28 1.27 1.34 1.30 1.31 1.23 1.26 1.24 1.25 1.29 1.44 1.41 1.52 1.62 1.50 1.46 1.37 1.19 1.13 1.13 1.13 1.14 1.12 1.19 1.40 1.61 2.06 2.39 2.06
1.08 1.10 1.11 1.19 1.27 1.31 1.29 1.23 1.22 1.19 1.17 1.13 1.11 1.10 1.08 1.10 1.15 1.15 1.19 1.14 1.15 1.18 1.21 1.19 1.23 1.48 1.56 1.57 1.46 1.32 1.34 1.31 1.16 1.07 1.06 1.03 1.03 1.07 1.15 1.25 1.56 2.20 2.40
1.01 1.03 1.03 1.05 1.11 1.19 1.23 1.19 1.15 1.15 1.14 1.12 1.11 1.13 1.11 1.10 1.11 1.11 1.18 1.21 1.23 1.18 1.13 1.06 1.15 1.41 1.40 1.38 1.32 1.34 1.47 1.38 1.17 1.16 1.14 1.10 1.05 1.03 1.03 1.10 1.23 1.45 1.74
0.90 0.95 0.94 0.91 0.94 1.01 1.08 1.12 1.14 1.15 1.14 1.13 1.13 1.15 1.14 1.10 1.13 1.21 1.20 1.27 1.29 1.15 1.11 1.23 1.28 1.26 1.21 1.21 1.29 1.34 1.30 1.27 1.35 1.41 1.28 1.10 0.99 0.97 1.01 1.10 1.17 1.25 1.36
0.75 0.83 0.86 0.86 0.87 0.88 0.92 1.01 1.08 1.14 1.15 1.11 1.13 1.17 1.13 1.05 1.06 1.12 1.15 1.19 1.24 1.19 1.21 1.26 1.22 1.14 1.09 1.12 1.22 1.23 1.19 1.25 1.42 1.49 1.36 1.15 1.04 1.07 1.14 1.24 1.39 1.43 1.57
0.66 0.71 0.74 0.81 0.86 0.90 0.92 1.00 1.10 1.15 1.26 1.29 1.20 1.16 1.19 1.17 1.17 1.30 1.33 1.27 1.32 1.35 1.32 1.16 1.06 1.03 1.03 1.01 1.04 1.06 1.12 1.23 1.35 1.31 1.34 1.31 1.24 1.24 1.27 1.35 1.58 1.72 1.79
0.70 0.70 0.74 0.82 0.86 0.88 0.90 0.96 1.06 1.12 1.18 1.21 1.24 1.23 1.18 1.23 1.28 1.33 1.38 1.43 1.48 1.47 1.36 1.20 1.09 1.01 0.97 0.94 0.96 1.01 1.05 1.14 1.26 1.36 1.40 1.40 1.40 1.39 1.39 1.43 1.63 1.82 1.81
0.76 0.78 0.79 0.83 0.89 0.88 0.87 0.90 0.97 1.01 1.04 1.06 1.12 1.18 1.19 1.21 1.21 1.26 1.36 1.41 1.38 1.35 1.31 1.22 1.09 1.04 0.99 0.94 0.95 0.99 1.01 1.03 1.18 1.37 1.47 1.49 1.52 1.49 1.51 1.57 1.67 1.77 1.72
0.73 0.79 0.83 0.86 0.91 0.91 0.89 0.89 0.91 0.94 0.96 0.98 1.02 1.10 1.14 1.18 1.23 1.27 1.33 1.34 1.32 1.22 1.16 1.15 1.10 1.06 1.05 1.06 1.06 1.09 1.09 1.09 1.19 1.32 1.40 1.47 1.57 1.65 1.65 1.64 1.68 1.72 1.68
0.71 0.75 0.79 0.85 0.91 0.94 0.93 0.92 0.92 0.90 0.90 0.93 0.95 1.06 1.15 1.17 1.23 1.29 1.26 1.19 1.16 1.11 1.06 1.05 1.03 1.06 1.11 1.15 1.17 1.19 1.24 1.29 1.33 1.47 1.49 1.50 1.58 1.72 1.70 1.59 1.58 1.56 1.51
0.67 0.77 0.83 0.87 0.89 0.90 0.93 0.96 0.95 0.91 0.90 0.89 0.90 0.99 1.10 1.18 1.18 1.14 1.11 1.07 1.09 1.09 1.05 1.05 1.04 1.05 1.12 1.19 1.24 1.27 1.33 1.35 1.39 1.50 1.55 1.58 1.63 1.73 1.72 1.58 1.48 1.48 1.39
0.68 0.72 0.80 0.84 0.87 0.90 0.93 0.96 0.96 0.94 0.93 0.91 0.90 0.98 1.19 1.20 1.09 0.99 0.99 1.04 1.08 1.10 1.09 1.08 1.07 1.10 1.16 1.24 1.30 1.32 1.37 1.38 1.43 1.55 1.61 1.59 1.60 1.59 1.49 1.46 1.43 1.43 1.44
0.70 0.72 0.72 0.78 0.86 0.92 0.97 0.99 0.99 0.96 0.92 0.91 0.90 0.95 1.09 1.04 1.02 1.01 1.00 1.00 1.00 1.02 1.05 1.13 1.14 1.13 1.26 1.43 1.56 1.61 1.50 1.42 1.42 1.54 1.57 1.47 1.43 1.43 1.43 1.45 1.44 1.45 1.48
0.72 0.74 0.75 0.79 0.87 0.96 1.00 0.98 1.00 0.98 0.95 0.92 0.93 0.93 0.94 0.95 0.99 1.02 1.04 1.03 1.00 1.00 1.00 1.08 1.16 1.12 1.14 1.34 1.56 1.87 1.95 1.72 1.60 1.69 1.80 1.65 1.49 1.47 1.52 1.54 1.46 1.46 1.42
0.73 0.77 0.80 0.82 0.88 0.92 0.96 0.97 0.97 0.98 0.98 0.96 0.94 0.94 0.95 0.97 0.98 0.99 1.00 1.03 1.03 1.00 0.98 1.04 1.11 1.11 1.12 1.29 1.46 1.60 1.75 1.87 2.05 2.11 2.08 2.07 1.80 1.57 1.54 1.53 1.44 1.40 1.41
0.72 0.78 0.82 0.86 0.90 0.92 0.94 0.95 0.95 0.96 0.97 0.98 0.97 0.96 0.96 0.95 0.94 0.94 0.94 0.96 0.98 0.98 0.94 0.96 1.03 1.08 1.13 1.23 1.37 1.47 1.60 1.76 1.96 2.07 2.00 1.93 1.74 1.55 1.52 1.51 1.43 1.41 1.41
0.72 0.76 0.80 0.83 0.88 0.92 0.95 0.97 0.97 0.98 1.00 1.00 0.99 0.99 0.99 0.96 0.91 0.90 0.90 0.91 0.93 0.92 0.88 0.89 0.92 1.00 1.10 1.21 1.24 1.36 1.50 1.49 1.45 1.49 1.71 1.85 1.73 1.52 1.49 1.55 1.45 1.42 1.41